www.pogodaiklimat.ru

Погода и климат >> Архив погоды >> Украина >> Львов


АРХИВ ПОГОДЫ в Львове

Время (UTC), дата Ветер
(напр.,м/с)
 
Видим.   Явления Облачность Т
(С)
Тd
(С)
f
(%)
Тe
(С)
Тes
(С)
Комфортность P
(гПа)
Po
(гПа)
Тmin
(С)
Tmax
(С)
R
(мм)
R24
(мм)
S
(см)
06 20.05 СВ 1 10 км 8/8 300 м
[St]
+13.9 +10.7 81 +14 +16 по сезону 1021.3 983.1 +11.6
09 20.05 С 3 10 км 8/8 1200 м
[Cu hum]
+17.9 +6.0 46 +18 +21 тепло 1021.6 983.9
12 20.05 СВ 3 10 км 8/8 1380 м
[Cu hum]
+18.5 +5.5 42 +19 +21 по сезону 1021.7 984.0
15 20.05 С 3 10 км 6/6 1300 м
[Sc]
+18.5 +5.0 41 +19 +21 тепло 1021.4 983.7
18 20.05 С 1 10 км 3/0
[Ci fib]
+15.5 +4.5 48 +16 +16 по сезону 1022.5 984.4 +19.4
21 20.05 СВ 1 10 км 6/0
[Ac trans]
+9.0 +6.7 85 +8 +8 холодно 1024.1 985.1
00 21.05 В 1 10 км 3/0
[Ac trans]
+9.8 +5.0 72 +9 +9 по сезону 1023.7 984.8
03 21.05 СВ 2 10 км 4/0
[Ci fib]
+8.0 +5.6 85 +6 +6 холодно 1024.4 985.2
06 21.05 В 3 10 км 3/0
[Ci fib]
+15.0 +3.8 47 +14 +19 по сезону 1023.4 985.2 +7.5
09 21.05 В 5 10 км 3/3 1000 м
[Cu hum]
+17.6 +1.1 33 +17 +23 тепло 1022.6 984.7
12 21.05 В 3 10 км 6/6 1380 м
[Cu hum]
+18.4 +3.2 36 +19 +24 тепло 1021.4 983.7
15 21.05 ЮВ 3 10 км 6/6 1380 м
[Sc]
+17.2 +2.1 36 +17 +19 по сезону 1020.4 982.6
18 21.05 В 2 10 км 3/0
[Ac trans]
+15.8 +4.1 46 +16 +16 по сезону 1020.3 982.3 +19.4
21 21.05 В 3 10 км 4/0
[Ac trans]
+14.0 +4.6 53 +13 +13 по сезону 1020.0 981.8
00 22.05 В 3 10 км 6/0
[Ac trans]
+13.3 +4.7 56 +12 +12 тепло 1019.2 980.9
03 22.05 ЮВ 3 10 км 8/0
[Ac trans]
+12.8 +5.4 61 +12 +12 по сезону 1018.6 980.3
06 22.05 Ю 3 10 км слабый ливневой дождь 10/4 1000 м
[Cb calv Ac As]
+13.1 +8.3 73 +12 +13 по сезону 1019.2 980.9 +12.3 0.0
09 22.05 ЮВ 3 10 км {ливн. осадки} 6/0
[Ac trans]
+16.6 +11.5 72 +16 +25 по сезону 1018.6 980.9
12 22.05 Ю 3 10 км {ливн. осадки} 8/8 1200 м
[Cu hum]
+21.1 +10.2 50 +23 +25 комфорт 1017.8 980.6
15 22.05 С 3 10 км гроза без осадков {ливн. осадки} 9/9 1200 м
[Cb calv]
+17.2 +13.9 81 +17 +18 по сезону 1018.4 980.8
18 22.05 штиль 0 10 км {гроза, ливн. осадки} 4/0
[Ac trans]
+17.4 +12.7 74 +17 +17 тепло 1017.9 980.3 +22.4 2
21 22.05 штиль 0 10 км 4/0
[Ac trans]
+12.6 +11.1 91 +12 +12 по сезону 1019.1 980.9
00 23.05 штиль 0 10 км ясно +10.7 +9.5 92 +10 +10 по сезону 1019.8 981.2
03 23.05 штиль 0 10 км 4/0
[Ci fib]
+9.8 +8.6 92 +9 +9 по сезону 1020.3 981.6
06 23.05 Ю 1 10 км 3/0
[Ci fib]
+17.8 +13.2 74 +19 +26 тепло 1020.0 982.4 +9.2
09 23.05 Ю 2 10 км 6/3 1500 м
[Cu hum Ci fib]
+22.8 +13.0 54 +26 +36 жарко 1019.8 982.8
12 23.05 Ю 2 10 км 6/6 1380 м
[Cu med, cong]
+24.6 +10.5 41 +26 +32 жарко 1018.9 982.1
15 23.05 С 1 10 км гроза, ливневой дождь 9/9 1470 м
[Cb calv]
+20.5 +15.9 75 +25 +25 комфорт 1018.8 981.6
18 23.05 В 1 10 км {гроза, ливн. осадки} 8/4 1000 м
[Cb calv Ac trans]
+18.2 +13.1 72 +20 +20 тепло 1019.3 981.8 +26.1 0.8
21 23.05 СВ 1 10 км 6/0
[Ac trans]
+17.4 +12.6 73 +18 +18 тепло 1020.1 982.4
00 24.05 штиль 0 10 км 4/0
[Ac trans]
+15.3 +12.8 85 +15 +15 тепло 1020.6 982.6
03 24.05 С 2 10 км 8/0
[Ac trans]
+15.5 +12.2 81 +15 +15 тепло 1019.9 982.0
06 24.05 СВ 2 10 км 8/0
[Ac trans]
+16.7 +11.4 71 +17 +20 тепло 1020.6 982.8 +14.9
09 24.05 СВ 3 10 км 8/0
[Ac trans]
+21.5 +13.4 60 +24 +31 комфорт 1020.4 983.2
12 24.05 СВ 3 10 км 8/8 1200 м
[Cu med, cong]
+23.8 +13.2 51 +26 +28 жарко 1019.0 982.2
15 24.05 С 4 10 км 8/8 1320 м
[Cb calv]
+23.0 +10.6 45 +25 +26 комфорт 1018.0 981.1
18 24.05 С 2 10 км 4/0
[Ci fib]
+20.2 +9.2 49 +22 +22 комфорт 1018.9 981.6 +24.3
21 24.05 СВ 1 10 км 4/0
[Ci fib]
+17.0 +8.7 58 +18 +18 тепло 1019.6 981.8
00 25.05 СВ 1 10 км 6/0
[Ac trans]
+15.0 +9.2 68 +16 +16 тепло 1019.2 981.2
03 25.05 штиль 0 10 км 4/0
[Ci fib]
+11.2 +9.2 87 +11 +11 по сезону 1020.1 981.6
06 25.05 В 2 10 км 4/0
[Ci fib]
+19.5 +7.8 47 +21 +27 комфорт 1019.0 981.6 +10.8
09 25.05 В 3 10 км 6/3 1000 м
[Cu hum Ci fib]
+21.1 +9.4 47 +22 +31 комфорт 1019.0 981.7
12 25.05 ЮВ 3 10 км 8/6 1170 м
[Cu med, cong Ci fib]
+21.2 +11.2 53 +23 +28 комфорт 1019.0 981.8
15 25.05 В 3 10 км 9/3 1000 м
[Cb calv Cs]
+21.0 +11.8 56 +24 +26 комфорт 1019.1 981.9
18 25.05 В 2 10 км 6/0
[Ac trans]
+20.4 +12.3 60 +23 +23 комфорт 1019.6 982.3 +22.5
21 25.05 штиль 0 10 км 4/0
[Ac trans]
+15.8 +12.6 81 +16 +16 тепло 1021.1 983.2
00 26.05 В 1 10 км 3/0
[Ci fib]
+16.1 +12.9 81 +17 +17 тепло 1021.2 983.3
03 26.05 СВ 1 10 км 6/0
[Ci fib]
+16.7 +12.6 77 +18 +18 тепло 1021.5 983.7
06 26.05 ЮВ 4 10 км 6/0
[Ci fib]
+20.2 +12.5 61 +22 +26 комфорт 1021.8 984.4 +15.0
09 26.05 ЮВ 5 10 км 6/0
[Ci fib]
+24.3 +11.5 45 +26 +33 жарко 1022.2 985.3
12 26.05 В 4 10 км 6/6 1380 м
[Cu hum]
+25.8 +12.2 43 +27 +32 жарко 1021.7 985.0
15 26.05 В 3 10 км 6/4 1000 м
[Cu hum Ci fib]
+24.9 +9.3 37 +26 +28 жарко 1020.4 983.6
18 26.05 В 4 10 км 6/0
[Ac trans Ci fib]
+21.3 +10.2 49 +23 +23 комфорт 1021.8 984.5 +26.1
21 26.05 ЮВ 2 10 км 4/0
[Ac trans]
+18.4 +7.4 49 +19 +19 тепло 1023.3 985.6
00 27.05 В 2 10 км 3/0
[Ac trans]
+15.5 +7.4 58 +15 +15 тепло 1022.8 984.8
03 27.05 ЮВ 1 10 км 3/0
[Ac trans]
+12.5 +7.6 72 +13 +13 по сезону 1023.1 984.6

 

Местоположение метеостанции Львов (Львовская область, Украина): широта 49.82 долгота 23.95 высота над уровнем моря 323 м.

В архиве по умолчанию представлена погода в Львове за последнюю неделю. Архивные данные за месяц целиком и за предыдущие месяцы, начиная с января 2011 года, Вы можете получить, выбрав интересующий диапазон дат из раскрывающегося списка и нажав кнопку "Ввод!".


*Определитесь, кто Вы:
робот инопланетянин человек

Внимание! Время в таблицах - всемирное. Для получения местного времени необходимо прибавить поправку, которая в Львове равна 2 ч.

Смотрите также архив погоды в соседних городах и на ближайших метеорологических станциях:

Погода в Каменке-Бугской (Львовская область, Украина) (42 км)
Погода в Яворове (Львовская область, Украина) (43 км)
Погода в Межгорье (Закарпатская область, Украина) (48 км)
Погода в Раве-Русской (Львовская область, Украина) (53 км)
Погода в Мостиске (Львовская область, Украина) (57 км)
Погода в Дрогобыче (Львовская область, Украина) (61 км)
Погода в Стрые (Львовская область, Украина) (64 км)
Погода в Славском (Львовская область, Украина) (84 км)
Погода в Бережанах (Львовская область, Украина) (84 км)
Погода в Przemysl (Польша) (86 км)

Пояснения к столбцам:

Ветер - указаны скорость ветра в м/с - средняя за 10 мин, порывы в срок и между сроками (в фигурных скобках) и направление, откуда дует ветер: С - северный, СВ - северо-восточный, В - восточный, ЮВ - юго-восточный, Ю - южный, ЮЗ - юго-западный, З - западный, СЗ - северо-западный.
Видимость - горизонтальная дальность видимости в метрах или километрах. При видимости от 1 до 10 км при отсутствии осадков обычно наблюдается дымка, при ухудшении видимости до 1 км и менее - туман. В сухую погоду видимость может ухудшаться дымом, пылью или мглою.
Явления - указаны атмосферные явления, наблюдавшиеся в срок или в последний час перед сроком; фигурными скобками обозначены явления, наблюдавшиеся между сроками (за 1-3 часа до срока); квадратными скобками обозначены град или гололедные отложения с указанием их диаметра в мм.
Облачность - указаны через наклонную черту общая и нижняя облачность в баллах и высота нижней границы облаков в метрах; квадратными скобками обозначены формы облаков: Ci - перистые, Cs - перисто-слоистые, Cc - перисто-кучевые, Ac - высококучевые, As - высокослоистые, Sc - слоисто-кучевые, Ns - слоисто-дождевые, Cu - кучевые, Cb - кучево-дождевые. Подробнее классификацию облаков см. в Атласе облаков (PDF).
T - Температура воздуха - температура, измеренная на высоте 2 м над землей.
Td - Температура точки росы - температура, при понижении до которой содержащийся в воздухе водяной пар достигнет насыщения.
f - Относительная влажность воздуха - влажноcть воздуха, измеренная на высоте 2 м над землей.
Te - Эффективная температура - температура, которую ощущает одетый по сезону человек в тени. Характеристика душности погоды. При расчете учитывается влияние влажности воздуха и скорости ветра на теплоощущения человека.
Tes - Эффективная температура на солнце - температура, которую ощущает человек, с поправкой на солнечный нагрев. Характеристика знойности погоды. Зависит от высоты солнца над горизонтом, облачности и скорости ветра. Ночью, в пасмурную погоду, а также при ветре 12 м/с и более поправка равна нулю.
P - Атмосферное давление - приведенное к уровню моря атмосферное давление.
Po - Атмосферное давление - измеренное на уровне метеостанции атмосферное давление.
Tmin - Минимальная температура - минимум температуры воздуха на высоте 2 м над землей.
Tmax - Максимальная температура - максимум температуры воздуха на высоте 2 м над землей.
R - Количество осадков - Количество выпавших осадков за период времени, мм. При наведении курсора мыши на число - период времени, за который выпало указанное количество осадков.
R24 - Количество осадков - Количество выпавших осадков за 24 часа, мм.
S - Снежный покров - Высота снежного покрова, см. При наведении курсора мыши на число - состояние снежного покрова и степень покрытия местности в баллах.